Lid_Strength_Index
10 10 10 11 11 10 11 11 13 12 11 8 7 6 6 5 4 4 4 4 4 4 3 3 3 2 2 2 1 1 1 1 1 1 1 0 1 0 0 0 0 0 0 0
12 10 10 11 9 9 10 9 10 10 10 6 5 5 5 5 5 5 4 4 3 3 3 3 3 2 2 2 2 1 1 2 1 1 1 1 1 1 1 0 0 0 0 0
14 11 11 14 11 9 9 8 9 12 9 6 6 6 5 5 5 4 4 4 3 3 3 3 3 2 2 2 1 2 2 1 1 1 1 1 1 1 1 1 1 1 2 3
14 13 19 10 7 7 8 8 8 8 7 6 6 5 4 4 4 4 4 3 3 3 3 2 2 2 2 2 2 2 2 2 1 1 1 1 1 1 2 4 6 8 10 11
15 14 11 10 8 9 10 10 7 8 7 6 5 5 5 4 3 4 4 4 3 3 3 2 2 2 2 2 2 2 3 2 2 2 3 5 7 7 8 10 12 13 13 13
12 16 17 10 7 6 7 12 8 7 8 7 6 9 6 4 4 4 4 3 3 3 2 3 3 2 3 4 5 6 6 7 7 8 8 10 11 12 13 14 14 14 15 14
14 15 12 7 6 6 14 12 7 7 7 7 8 6 5 4 5 4 4 4 4 4 4 4 3 5 7 7 8 8 9 9 10 10 12 12 13 14 14 15 16 16 17 16
14 16 17 6 8 13 9 6 6 6 6 6 5 5 5 5 5 5 5 6 5 6 6 5 6 7 9 10 10 11 11 12 12 12 12 12 13 14 15 15 16 15 16 16
11 12 6 5 7 6 5 6 6 6 6 5 6 6 6 6 7 7 8 9 10 10 10 9 9 9 11 11 11 11 11 12 12 13 12 12 13 13 14 14 15 16 17 17
10 8 7 7 6 6 5 5 5 4 5 5 6 6 6 7 8 9 10 11 11 12 12 13 12 11 11 11 11 11 12 12 12 13 13 14 14 14 14 15 15 16 16 17
8 7 7 6 6 5 5 4 5 5 5 5 5 7 8 9 10 11 12 12 12 13 13 13 12 11 10 10 10 12 13 13 13 14 15 16 16 15 16 16 15 15 15 15
10 6 6 7 6 5 5 5 4 5 5 4 6 8 9 12 12 13 13 13 14 14 14 13 13 12 11 10 11 12 13 13 13 13 14 15 16 17 17 16 16 16 16 16
6 5 5 4 4 4 4 5 5 6 4 7 9 10 12 14 15 15 15 15 15 15 15 15 15 14 13 12 13 14 15 15 14 14 14 15 16 17 19 18 18 17 17 17
5 5 6 5 5 4 5 6 7 8 8 9 11 13 14 14 15 16 18 17 17 17 17 17 17 17 16 16 16 16 16 16 15 16 16 16 16 16 16 17 17 18 19 19
5 4 4 4 4 4 5 5 7 9 10 11 13 15 15 16 18 18 18 18 19 19 20 20 20 19 17 16 16 16 16 17 17 17 17 17 17 17 17 17 17 19 19 19
5 4 4 4 5 5 6 7 8 11 13 14 15 16 17 17 18 18 18 18 20 21 20 20 20 18 18 17 18 18 19 19 18 18 18 18 17 17 18 19 20 20 21 21
6 6 5 6 5 7 7 8 9 13 15 16 17 18 19 20 21 22 22 21 21 21 20 19 19 18 18 18 18 19 20 20 20 19 19 19 19 20 20 20 20 21 22 23
6 6 6 5 5 8 9 9 11 13 16 17 18 18 19 21 22 23 22 22 22 22 21 20 20 19 20 19 19 20 19 20 20 20 20 20 21 21 21 21 21 22 22 23
8 8 8 8 7 8 10 12 13 15 17 18 20 20 20 21 21 22 21 22 22 23 22 21 20 20 21 20 20 19 20 20 21 22 22 22 22 22 22 22 22 22 22 22
11 10 10 10 10 11 14 15 16 17 18 19 20 20 21 21 21 21 20 21 21 22 21 22 21 22 21 20 20 20 21 21 22 22 22 22 22 23 24 25 23 23 22 22
13 13 13 13 14 14 15 16 18 19 19 19 21 22 22 21 21 21 22 23 22 21 21 22 22 22 21 21 21 21 22 23 23 23 23 23 23 23 23 23 23 22 23 23
15 16 16 16 16 17 16 17 18 19 20 21 21 21 22 23 23 23 22 23 22 22 22 22 23 23 23 22 21 22 23 23 23 23 23 23 23 24 23 23 23 23 23 23
17 17 17 18 19 19 19 20 20 20 21 21 21 21 21 22 22 24 25 23 23 23 23 24 26 25 24 23 23 24 24 24 24 24 24 24 24 23 23 24 24 23 23 23
16 17 17 18 18 18 20 20 20 20 21 21 22 21 22 23 24 23 23 24 25 24 24 25 26 25 25 24 24 24 24 24 24 24 25 25 23 24 23 24 24 22 22 22
17 17 18 19 20 20 20 21 21 22 22 22 22 22 22 22 24 24 24 24 25 25 26 27 26 25 24 24 24 24 24 24 24 24 24 24 23 23 23 23 23 22 23 22
17 17 18 18 19 20 20 21 22 22 23 24 24 23 23 24 24 24 24 25 25 25 25 25 24 24 24 24 24 24 24 24 24 24 24 23 23 23 23 23 23 22 22 22
18 19 19 20 20 20 21 21 22 23 23 23 24 24 24 24 24 25 25 24 25 25 25 24 24 24 24 24 24 24 23 24 26 24 23 22 23 22 22 23 22 22 22 22